ROMMA est une association bénévole à but non lucratif. Votre soutien est indispensable : ADHERER à ROMMA ou FAIRE un DON

Chambon - (38, Isère)

Oisans (2460 m)   Longitude: 06° 10' 42" E   Latitude: 45° 01' 32" N Station partenaire n°803
 

Détail journalier du     <<     >>

Température Humidité Vent Dir Rafale Dir. rafale Neige 1 Neige 2
Heure (°C) (%) (km/h) (km/h) (cm) (cm)
01:00 -3.9694SO8SO170202
02:00 -4.4693SO8SO170202
03:00 -3.6534S8S170202
04:00 -3.0374NE8S170202
05:00 -2.8296NNE10NE170202
06:00 -2.5236NNE10NNE170202
07:00 -2.9223NNE10NNE170202
08:00 -2.4193NNE7NNO170202
09:00 0.9162NNO6NNO169202
10:00 1.3163NE6NE169202
11:00 1.1213NE8NNO169202
12:00 1.3204NNE8NNO170202
13:00 3.4222NNE9S169202
14:00 3.1245S12OSO170202
15:00 2.5339SO17SO170202
16:00 3.03311SO21SO169202
17:00 3.1349SO19SO169202
18:00 1.84313SO22OSO169202
19:00 0.55117SO24SO169202
20:00 -1.15412SSO22SO169202
21:00 -2.0583SSO12SSO169202
22:00 -2.0573ENE8ENE169202
23:00 -3.0642ENE7ENE169202
minuit -2.9601N4SE169202

Graphique du 30-03-2019

 

Serveur OMMA